Weather History for West Palm Beach, FL

Change the Weather History Date:

Saturday, November 1, 2014

  Actual Average Record
Temperature  
Mean Temperature 63 °F 75 °F  
Max Temperature 74 °F 82 °F 90 °F (1900)
Min Temperature 52 °F 68 °F 45 °F (1993)
Degree Days  
Heating Degree Days 2 0  
Month to date heating degree days 2 0  
Since 1 July heating degree days 2 1  
Cooling Degree Days 0 10  
Month to date cooling degree days 0 10  
Year to date cooling degree days 3936 3631  
Growing Degree Days 14 (Base 50)    
Moisture  
Dew Point 49 °F    
Average Humidity 63    
Maximum Humidity 87    
Minimum Humidity 39    
Precipitation  
Precipitation 0.00 in 0.17 in 5.89 in (1982)
Month to date precipitation 0.00 0.17  
Year to date precipitation 57.59 54.37  
Snow  
Snow 0.00 in - - ()
Month to date snowfall 0.0  
Since 1 July snowfall 0.0  
Since 1 September snowfall 0.0  
Snow Depth 0.00 in    
Sea Level Pressure  
Sea Level Pressure 29.96 in    
Wind  
Wind Speed 13 mph (WNW)    
Max Wind Speed 26 mph    
Max Gust Speed 34 mph    
Visibility 10 miles    
Events      
T = Trace of Precipitation, MM = Missing Value Source: NWS Daily Summary

Daily Weather History Graph

Daily Weather History Graph

Search for Another Location

Airport:

Trip Planner

Search our weather history database for the weather conditions in past years. The results will help you decide how hot, cold, wet, or windy it might be!

Date:

Astronomy

Nov. 01, 2014 Rise Set
Actual Time 7:29 AM EDT 6:37 PM EDT
Civil Twilight 7:05 AM EDT 7:01 PM EDT
Nautical Twilight 6:38 AM EDT 7:29 PM EDT
Astronomical Twilight 6:11 AM EDT 7:56 PM EDT
Moon 3:00 PM EDT (11/1) 1:57 AM EDT (11/1)
Length of Visible Light 11h 55m
Length of Day
11h 07m
Waxing Gibbous, 67% of the Moon is Illuminated
Nov 1
Waxing Gibbous
Nov 6
Full
Nov 14
Last Quarter
Nov 22
New
Nov 29
First Quarter

Hourly Weather History & Observations

Time (EDT) Temp. Dew Point Humidity Pressure Visibility Wind Dir Wind Speed Gust Speed Precip Events Conditions
12:53 AM 64.0 °F 52.0 °F 65% 29.88 in 10.0 mi WNW 11.5 mph - N/A   Clear
1:53 AM 63.0 °F 53.1 °F 70% 29.88 in 10.0 mi WNW 11.5 mph - N/A   Clear
2:53 AM 61.0 °F 53.1 °F 75% 29.88 in 10.0 mi WNW 10.4 mph - N/A   Clear
3:53 AM 60.1 °F 53.1 °F 78% 29.89 in 10.0 mi WNW 6.9 mph - N/A   Clear
4:53 AM 59.0 °F 53.1 °F 81% 29.90 in 10.0 mi WNW 4.6 mph - N/A   Clear
5:53 AM 59.0 °F 54.0 °F 83% 29.90 in 10.0 mi WSW 5.8 mph - N/A   Clear
6:53 AM 57.0 °F 53.1 °F 87% 29.91 in 10.0 mi Calm Calm - N/A   Clear
7:53 AM 59.0 °F 55.9 °F 90% 29.94 in 10.0 mi SSW 5.8 mph - N/A   Partly Cloudy
8:53 AM 63.0 °F 57.9 °F 84% 29.94 in 10.0 mi SSW 8.1 mph - N/A   Clear
9:53 AM 69.1 °F 57.0 °F 65% 29.96 in 10.0 mi West 8.1 mph - N/A   Partly Cloudy
10:53 AM 71.1 °F 57.0 °F 61% 29.96 in 10.0 mi WNW 16.1 mph 24.2 mph N/A   Partly Cloudy
11:53 AM 72.0 °F 53.1 °F 51% 29.97 in 10.0 mi WNW 18.4 mph - N/A   Partly Cloudy
12:53 PM 72.0 °F 54.0 °F 53% 29.96 in 10.0 mi WNW 21.9 mph 29.9 mph N/A   Partly Cloudy
1:53 PM 73.0 °F 52.0 °F 48% 29.94 in 10.0 mi West 21.9 mph 32.2 mph N/A   Scattered Clouds
2:53 PM 73.0 °F 54.0 °F 51% 29.92 in 10.0 mi WNW 20.7 mph 28.8 mph N/A   Partly Cloudy
3:53 PM 71.1 °F 51.1 °F 49% 29.92 in 10.0 mi West 21.9 mph 33.4 mph N/A   Partly Cloudy
4:53 PM 69.1 °F 46.0 °F 44% 29.94 in 10.0 mi WNW 23.0 mph 31.1 mph N/A   Partly Cloudy
5:53 PM 64.9 °F 39.9 °F 40% 29.97 in 10.0 mi WNW 17.3 mph 28.8 mph N/A   Clear
6:53 PM 62.1 °F 37.9 °F 41% 30.00 in 10.0 mi WNW 12.7 mph - N/A   Clear
7:53 PM 60.1 °F 36.0 °F 41% 30.04 in 10.0 mi NW 16.1 mph - N/A   Clear
8:53 PM 57.9 °F 34.0 °F 41% 30.08 in 10.0 mi NW 15.0 mph - N/A   Clear
9:53 PM 55.9 °F 35.1 °F 45% 30.11 in 10.0 mi NW 10.4 mph - N/A   Clear
10:53 PM 54.0 °F 37.0 °F 53% 30.14 in 10.0 mi NW 10.4 mph - N/A   Clear
11:53 PM 54.0 °F 37.9 °F 55% 30.14 in 10.0 mi NW 15.0 mph - N/A   Clear